Погода в Салерно

Италия     40°41′03″N   14°45′51″E
темп.,
°C
ветер,
м/с
пор.,
м/с
влажн.,
%
обл.,
%
осадки,
мм/ч
давл.,
гПа
погр.,
м
14 мая, пт
пт1423:00+13ююз12826 0.7 101184
02:00+12вюв018549 0.9 101271
05:00+11юв11904 0.1 101236
08:00+13ююв11790 0.1 1013364
11:00+17ю34469 0.0 10131395
14:00+18ю4544100 0.0 10131446
17:00+17ю455190 0.0 10121192
20:00+15ююв3571100 0.0 1011743
15 мая, сб
сб1523:00+13ю3490100 2.5 1010357
02:00+13юз2395100 26.0 1008243
05:00+12юв129295 4.8 1009157
08:00+13сз128543 4.9 1010399
11:00+16юз226854 0.6 10121030
14:00+17ю226383 0.8 1012932
17:00+17ю2264100 0.1 1013914
20:00+15ю1276100 0.3 1013489
16 мая, вс
вс1623:00+13юв018360 0.0 1015121
02:00+12юв1187100 0.0 101466
05:00+12вюв1290100 0.0 101473
08:00+14ююв1182100 0.0 1015321
11:00+17ю2368100 0.1 1015916
14:00+18ю4464100 0.1 1015931
17:00+17ю3372100 0.0 1014758
20:00+15ююв2384100 0.0 1014411
17 мая, пн
пн1723:00+14юв1290100 0.0 1014119
02:00+13вюв128693 0.0 101350
05:00+13юв12885 0.0 101367
08:00+15ююв237517 0.0 1013275
11:00+19ю33638 0.0 1014606
14:00+20ю456358 0.0 1014867
17:00+20ю346311 0.0 1013804
20:00+17юв228293 0.0 1014199
18 мая, вт
вт1823:00+16юв128543 0.0 101546
02:00+15ююв018210 0.0 101536
05:00+14с018446 0.0 101429
08:00+17ююз12685 0.0 1015478
11:00+19ю44490 0.0 10151110
14:00+20ююз565160 0.0 10151332
17:00+18юз46490 0.0 10151230
20:00+15юз23555 0.0 1015497